Temp
14 14 14 15 15 17 18 19 20 20 21 22 23 24 25 26 25 25 29 27 26 26 25 25 26 27 28 28 27 28 29 29 27 27 23 20 22 21 22 22 21 21 23 22 18
13 15 15 15 16 16 17 19 20 21 21 22 23 24 25 26 25 28 26 26 27 26 27 28 29 29 29 28 27 28 30 29 28 27 23 23 24 22 22 22 22 21 20 19 18
12 14 15 16 16 17 17 19 20 21 22 22 23 24 25 26 28 29 26 26 27 27 28 29 29 29 28 28 26 26 29 25 25 25 25 24 24 24 24 23 24 22 20 19 19
13 13 15 16 16 17 17 19 21 21 22 23 23 24 25 25 28 28 26 27 27 26 28 28 29 29 28 28 25 25 24 25 24 24 24 24 24 23 25 25 25 24 21 20 20
14 13 14 16 17 17 18 19 21 22 22 23 24 24 25 29 29 26 26 27 26 27 29 30 29 29 28 26 27 25 24 24 24 23 24 24 24 25 24 23 23 21 20 21 21
14 14 15 17 17 17 18 20 21 22 23 23 24 24 26 29 26 25 26 24 27 28 29 30 30 29 26 25 27 24 24 23 24 23 23 23 23 24 22 22 21 21 21 21 21
14 14 15 17 17 18 19 21 21 23 23 23 24 25 28 27 25 26 25 26 27 28 29 28 28 29 26 24 25 24 24 24 24 24 23 24 23 24 23 22 21 21 22 22 21
14 14 15 16 17 18 19 21 22 23 24 23 24 24 27 26 26 26 27 26 26 27 26 26 26 26 26 25 25 26 26 26 24 24 23 23 27 24 22 22 22 22 22 22 21
13 14 15 16 17 18 20 22 23 23 23 24 24 26 27 26 27 25 26 26 26 25 25 25 26 25 25 26 26 26 28 27 24 25 25 24 27 25 23 23 23 22 22 22 22
11 14 15 16 17 18 21 23 23 23 23 23 24 26 27 27 25 25 25 26 27 26 27 27 27 26 27 28 28 27 27 26 27 25 24 26 27 25 23 23 24 23 23 23 22
10 13 14 15 16 18 20 21 24 25 23 23 24 23 25 25 24 26 25 27 28 28 27 26 27 27 27 28 28 29 28 27 27 26 25 26 27 28 25 24 24 24 24 23 23
9 11 14 15 16 17 17 18 15 14 20 22 22 23 23 23 26 26 25 27 27 27 26 27 27 28 27 27 27 28 28 28 26 24 24 27 27 28 27 25 25 25 25 24 23
8 9 13 15 16 16 15 14 13 13 19 23 24 25 25 25 26 26 26 26 27 26 26 27 27 25 26 26 26 27 28 27 27 24 24 25 27 28 28 26 25 25 25 25 24
8 9 12 15 16 14 17 14 13 13 22 24 24 25 25 26 25 24 24 26 25 26 26 26 24 24 25 26 26 27 27 27 25 26 27 25 28 29 28 26 25 25 25 25 24
7 8 10 12 12 17 14 14 15 15 19 22 24 24 25 26 25 25 23 25 26 25 25 24 24 24 25 26 26 26 25 26 26 26 26 26 26 30 26 28 27 26 25 24 24
7 8 9 11 11 13 14 15 15 20 18 22 23 23 24 24 25 25 25 25 24 24 24 23 23 24 25 24 24 24 25 25 25 25 25 26 26 30 28 26 27 27 26 25 24
7 8 8 9 15 13 14 17 20 17 21 22 23 23 24 24 24 25 25 24 25 23 23 23 24 23 23 24 24 25 25 24 24 23 24 24 24 28 26 25 25 25 25 25 24
7 8 8 9 10 12 14 18 17 21 21 21 22 22 23 24 24 24 24 24 23 25 25 24 23 24 22 24 25 25 25 24 23 24 25 23 25 26 25 25 24 25 24 23 23
7 8 8 9 10 11 17 11 18 21 22 22 22 22 23 23 23 24 24 25 25 25 24 24 24 22 21 22 23 24 23 24 23 20 22 26 25 25 25 25 26 25 25 24 22
6 7 10 9 11 13 13 14 18 20 21 21 23 23 23 23 23 23 23 24 24 24 24 24 22 21 21 22 21 23 22 23 22 20 22 25 25 26 25 25 25 24 24 23 23
6 10 10 9 10 14 11 14 17 20 20 21 22 22 23 22 23 23 24 22 22 22 23 24 23 21 21 22 23 21 22 21 22 21 22 23 25 24 25 24 24 24 22 21 20
6 11 9 9 13 14 13 14 15 20 19 20 21 22 22 22 23 23 23 23 21 23 23 22 23 22 23 20 20 21 22 23 21 20 20 20 23 22 24 23 22 23 21 19 17
8 10 9 9 12 14 15 15 15 18 20 20 21 21 21 22 22 23 22 19 20 22 23 22 22 20 21 20 19 20 20 15 16 20 21 21 24 22 22 22 22 21 19 17 16
8 7 10 9 11 14 15 15 15 16 15 17 19 21 21 21 21 22 21 19 19 21 14 20 22 22 22 22 20 15 18 13 16 19 22 22 24 25 23 22 21 20 18 16 15
8 8 10 8 10 12 15 16 16 16 15 15 19 20 22 21 21 21 22 19 19 16 20 22 21 19 20 21 21 22 21 18 16 21 20 23 23 24 23 21 20 19 18 16 14
6 7 8 8 13 12 13 15 16 15 17 13 15 16 21 22 22 22 22 21 22 20 21 20 20 21 19 19 20 20 22 21 21 21 21 22 21 22 21 20 18 17 16 15 13
6 7 6 8 11 13 14 14 14 18 17 18 15 15 18 21 22 21 22 22 22 21 21 21 19 20 20 19 19 19 21 22 22 21 21 21 21 20 20 17 15 16 15 14 13
Height
855 853 850 847 843 840 837 833 829 826 822 820 818 816 814 813 813 812 809 812 812 813 813 815 818 817 816 817 819 816 817 822 827 831 848 859 857 862 863 865 867 869 865 869 879
855 853 850 847 843 840 836 832 828 825 822 819 817 815 814 813 814 812 812 810 809 811 813 811 812 814 813 817 820 817 810 819 818 825 844 851 848 859 861 864 867 870 875 876 880
856 852 850 846 843 839 836 832 828 824 821 818 816 814 813 812 813 810 809 808 807 809 811 810 811 810 816 816 824 824 820 831 835 835 838 848 850 853 854 859 858 864 872 877 880
857 853 848 846 842 838 835 831 827 822 820 818 815 812 811 812 820 808 807 805 804 807 811 811 811 813 817 821 825 835 837 834 840 842 844 849 849 857 850 849 854 861 871 876 878
857 854 849 844 841 837 834 830 825 821 818 816 814 811 811 808 807 807 804 803 804 807 806 806 808 810 818 824 824 835 842 842 844 846 846 849 852 850 852 857 861 866 872 874 876
857 853 848 843 840 836 832 828 823 818 817 815 813 811 810 810 808 806 803 804 805 806 806 806 805 808 821 830 826 835 842 847 849 851 855 854 857 852 858 860 865 869 870 872 875
856 853 848 843 838 833 828 825 821 817 815 814 813 810 807 811 809 806 803 806 807 806 805 808 810 807 822 835 835 838 846 850 850 851 854 852 861 852 855 862 866 867 868 869 874
855 852 848 844 837 832 827 822 818 815 814 813 812 810 810 810 810 810 806 807 808 808 810 813 813 817 821 832 836 838 838 844 850 851 854 856 837 852 856 859 862 865 866 869 872
855 852 848 843 836 830 824 819 816 815 813 813 812 810 811 810 810 811 810 809 812 814 813 816 815 823 828 829 838 839 835 838 849 845 847 852 837 843 852 854 855 860 862 865 868
853 851 848 842 836 830 823 817 816 815 814 813 812 813 810 810 811 812 813 813 812 815 815 815 817 823 822 820 832 832 833 840 837 841 849 844 840 842 848 850 848 852 855 859 862
853 849 846 842 837 832 823 817 818 815 816 816 817 816 814 813 812 813 813 813 812 812 819 819 824 823 819 814 814 815 825 830 829 835 841 839 836 829 840 845 844 844 848 852 857
852 848 846 843 839 835 830 830 840 843 828 818 817 816 815 814 812 811 814 814 815 820 819 822 822 812 817 821 820 821 825 828 835 840 842 832 833 824 827 836 836 838 841 846 852
851 847 845 844 841 838 837 840 840 840 832 817 813 812 812 814 813 812 813 813 817 822 822 824 819 825 827 829 829 826 825 828 828 841 840 841 827 819 814 825 831 832 833 838 845
851 847 844 843 843 840 840 840 838 838 827 818 815 811 812 810 816 814 814 814 822 823 822 825 830 831 834 832 829 831 824 826 835 836 835 836 832 811 814 825 828 828 830 832 837
852 848 845 844 843 841 843 839 837 838 853 820 814 812 810 811 812 815 814 813 819 824 826 832 831 833 835 830 829 834 830 830 832 835 837 836 841 807 819 817 816 820 823 826 830
852 849 845 845 843 841 839 838 838 839 853 820 813 814 814 812 813 812 813 814 818 824 827 833 829 830 828 834 833 835 836 838 838 840 849 831 837 808 813 823 817 813 815 817 824
851 847 845 844 841 839 837 838 841 852 823 821 817 814 811 816 816 812 815 819 822 837 837 836 833 832 832 835 837 833 837 851 856 858 850 843 843 814 818 819 820 820 816 815 819
848 845 841 840 840 839 838 839 846 824 821 817 816 815 817 815 816 817 817 820 822 819 826 833 845 832 836 832 829 834 833 848 861 852 843 847 838 824 818 817 820 818 817 819 821
846 843 840 837 838 839 836 861 832 816 813 816 818 818 818 817 816 817 816 813 812 815 827 832 831 837 837 835 834 836 844 836 848 861 855 829 826 821 817 817 817 818 818 820 824
849 845 839 838 837 839 843 841 825 816 815 815 815 813 814 815 819 817 817 812 814 815 814 823 840 840 839 837 838 836 837 848 850 868 858 832 830 818 823 822 820 821 822 823 824
849 842 838 837 838 836 842 835 825 817 816 817 812 817 813 816 812 813 812 817 815 820 816 819 826 844 841 837 831 843 843 848 843 850 850 844 828 819 818 820 823 822 826 829 829
851 838 838 838 833 828 832 830 826 814 818 817 815 814 813 813 814 813 813 813 815 813 819 820 824 838 834 841 840 837 834 834 848 856 854 853 837 823 820 824 826 825 828 832 835
850 842 838 839 831 822 825 826 826 819 817 817 814 812 813 812 818 811 812 819 817 815 816 819 827 846 840 843 843 841 840 857 855 843 844 850 830 824 825 825 826 830 832 837 840
853 848 838 838 832 821 820 820 826 825 826 823 819 813 814 815 813 813 815 821 820 816 829 820 821 824 831 827 832 856 846 863 853 848 837 836 823 815 819 825 827 830 835 840 843
851 846 837 840 834 828 817 815 818 822 826 830 820 815 808 815 814 815 812 820 821 827 820 817 828 833 831 828 828 825 832 844 854 833 839 823 822 813 818 826 830 833 836 841 845
852 850 845 840 824 825 823 813 813 819 817 831 831 826 807 807 805 808 809 811 808 819 818 820 827 825 835 832 830 831 824 827 829 826 826 824 824 818 823 827 834 837 838 844 849
853 852 852 839 826 818 815 818 816 808 810 812 826 827 820 810 803 803 801 803 803 808 815 819 828 830 829 833 834 839 819 813 816 821 822 826 820 824 825 836 842 839 844 848 853
Wind_Speed
20 22 24 24 25 25 24 22 20 18 16 15 15 12 9 0 6 3 3 3 2 5 13 12 13 11 7 3 2 2 5 6 10 16 11 12 10 6 4 9 5 4 2 12 19
23 21 22 24 25 26 25 23 21 19 17 15 14 13 7 2 3 3 3 6 4 10 14 15 13 13 4 3 2 5 3 6 6 6 16 17 12 12 9 11 6 7 7 18 17
23 23 23 24 25 26 27 25 22 19 17 14 13 13 8 2 5 3 8 11 7 14 10 10 16 8 4 2 3 3 3 7 5 4 17 15 11 9 11 12 10 14 17 18 16
23 24 24 25 26 28 30 28 22 20 16 13 12 12 3 5 4 3 13 9 7 16 16 17 12 7 3 3 3 7 7 5 7 11 12 14 12 8 13 6 7 12 19 18 15
22 25 24 25 27 28 31 31 24 19 14 11 11 10 2 6 2 8 9 4 11 17 16 13 11 6 6 8 14 14 9 9 11 9 10 8 10 6 10 4 13 18 17 16 14
22 23 25 25 27 29 31 32 26 16 11 9 9 5 3 7 7 10 2 11 9 12 13 12 6 9 11 6 3 11 14 14 9 10 7 6 5 6 6 12 13 14 15 15 14
20 22 24 26 27 30 32 32 25 11 8 8 5 3 1 4 7 8 8 4 7 9 9 9 16 5 11 14 14 19 18 12 8 9 6 5 8 9 14 13 14 14 13 12 13
18 20 24 26 26 29 32 31 18 5 6 5 4 0 3 3 4 9 12 17 13 15 20 14 18 13 6 19 12 11 11 10 10 9 6 7 9 7 15 16 15 14 13 12 14
17 19 22 25 26 29 31 30 7 7 2 5 2 4 6 1 2 7 4 14 14 14 17 10 9 11 16 16 11 8 9 6 11 9 4 10 1 9 16 16 15 15 14 14 13
18 18 20 24 26 27 29 19 4 4 2 1 2 2 2 4 2 4 5 4 7 12 7 3 3 8 12 13 8 10 11 7 10 13 10 11 13 8 15 17 17 16 15 15 15
20 18 19 22 24 23 26 7 4 3 6 2 3 1 1 1 2 4 2 6 4 2 2 1 5 12 20 9 5 10 10 11 11 6 10 13 13 12 15 18 18 18 17 16 16
20 19 16 20 22 15 13 6 4 2 6 3 4 4 3 4 5 4 0 7 7 5 4 5 8 12 8 10 10 10 10 8 5 7 8 8 15 16 16 20 19 18 18 18 17
20 20 15 16 17 8 11 8 5 4 4 2 3 3 2 3 2 5 2 4 4 6 6 7 6 9 11 9 9 7 10 10 2 8 8 8 16 17 16 18 17 19 18 17 18
20 20 11 12 3 8 3 11 5 5 3 4 5 4 4 3 4 2 2 2 2 5 4 1 6 13 9 6 6 6 5 9 9 11 3 5 5 6 7 12 18 17 18 18 19
20 18 12 6 7 3 6 12 2 3 2 1 4 2 4 5 6 3 2 2 7 5 4 4 9 13 12 7 6 5 4 7 7 5 5 9 5 5 4 5 5 12 18 20 20
20 18 15 5 6 3 10 9 2 1 5 4 2 5 9 5 4 4 3 5 3 4 4 3 2 3 2 2 2 11 9 6 3 3 6 0 5 3 4 5 5 5 6 13 20
21 18 14 8 1 6 9 3 3 3 1 4 3 5 8 7 6 7 9 8 8 7 7 2 4 3 3 7 7 7 8 3 4 4 3 3 5 6 5 6 6 7 7 4 12
23 18 11 10 6 6 3 2 4 5 4 1 2 5 7 8 5 6 8 10 4 6 6 9 6 7 1 3 4 11 7 4 5 3 1 3 5 4 5 5 4 6 8 6 5
23 11 6 4 5 2 3 2 6 5 3 5 5 6 7 6 4 8 10 10 9 9 8 6 6 2 2 1 3 6 8 1 1 1 3 4 4 4 4 8 8 10 12 12 5
15 9 5 2 7 4 2 4 4 1 3 4 8 6 8 11 8 9 10 5 7 7 4 5 3 2 3 2 4 3 4 3 1 2 5 4 5 2 6 8 9 10 12 11 9
6 4 0 5 8 4 4 5 6 6 3 4 6 3 5 6 11 8 4 4 5 7 4 7 3 4 4 7 8 4 4 1 1 2 3 5 1 2 6 6 6 9 9 9 9
4 3 3 9 6 4 6 6 2 6 2 4 3 5 7 8 9 9 9 2 4 8 7 3 2 5 2 2 1 2 4 9 3 4 2 2 5 4 3 3 6 10 9 9 9
3 3 2 6 7 9 6 4 1 8 4 2 5 7 4 7 6 10 7 3 5 7 10 8 5 3 4 4 3 5 6 2 2 1 9 5 3 5 4 1 7 8 7 7 8
2 2 2 2 3 7 13 11 7 4 2 5 7 5 6 6 5 5 7 3 3 6 2 4 5 6 6 2 4 4 7 3 3 4 6 11 13 9 5 7 5 6 5 6 8
2 3 3 3 4 8 11 9 15 10 7 3 9 11 10 7 8 5 7 5 5 6 4 4 6 4 3 1 4 4 5 11 8 13 8 11 10 10 8 6 6 5 3 6 8
2 2 4 4 6 11 12 15 16 11 8 5 7 13 12 11 10 9 9 8 6 8 7 4 3 5 5 3 5 8 10 11 14 13 14 16 16 6 5 4 6 7 5 8 9
5 5 2 5 6 9 13 15 7 18 12 13 14 7 9 11 7 3 2 2 3 7 10 7 6 5 3 2 3 7 16 17 12 9 11 10 4 2 2 5 7 7 8 10 11
Wind_Direction
5 5 4 5 6 6 1 355 351 349 348 351 354 352 360 69 202 224 134 74 165 191 160 156 179 169 176 104 42 261 209 167 154 167 144 154 162 158 144 156 187 163 227 135 147
355 356 358 358 0 2 1 355 348 345 343 345 350 348 347 277 180 229 348 329 238 179 170 169 163 172 136 113 56 294 226 122 119 97 156 172 177 158 173 165 184 163 136 140 150
353 350 350 352 355 359 358 356 345 341 338 338 346 344 335 192 202 152 328 307 246 184 195 187 158 160 133 97 25 22 47 120 108 110 151 162 171 168 181 181 187 175 156 157 161
349 344 344 346 350 353 353 351 345 335 332 334 342 343 325 176 194 111 312 285 219 169 164 152 170 161 126 98 88 114 74 84 114 130 148 164 150 185 192 63 168 156 156 161 166
342 338 339 341 346 348 347 347 343 331 324 331 343 347 204 202 29 328 318 226 157 164 174 176 173 154 120 110 102 98 95 109 126 140 148 141 182 184 191 121 139 145 161 169 171
339 341 339 339 341 344 344 343 340 326 317 325 346 349 252 209 334 336 284 153 179 184 163 185 176 109 96 92 3 127 120 120 137 133 144 206 169 206 147 145 149 160 173 176 177
337 341 340 338 338 340 340 340 336 320 314 317 346 9 173 61 10 12 133 187 191 195 151 140 134 165 124 102 122 126 123 130 147 154 145 209 198 218 148 166 168 180 183 180 182
328 340 343 342 338 337 337 338 332 322 313 310 331 286 94 14 56 49 106 88 97 113 117 116 115 91 110 125 137 138 158 162 163 176 150 227 169 147 165 176 185 190 187 188 187
322 331 341 344 341 338 336 338 328 326 309 318 318 277 149 95 87 22 106 111 102 99 103 111 87 105 144 141 141 197 173 196 165 199 173 228 304 158 179 190 191 196 195 197 192
334 326 337 344 344 342 340 338 315 359 322 316 18 218 194 131 48 113 90 116 120 123 131 130 127 149 167 187 184 181 176 193 181 187 215 216 252 175 192 200 204 203 204 204 203
344 322 334 341 345 348 351 359 353 170 23 356 12 29 329 0 135 144 23 149 164 175 230 120 186 187 176 200 263 177 190 187 189 143 211 233 253 215 201 209 211 212 209 208 207
348 332 321 335 340 356 21 56 50 325 307 262 254 261 242 310 175 142 281 200 207 209 152 203 220 171 137 155 153 169 184 167 144 158 211 250 260 252 207 219 218 218 219 214 209
350 347 315 326 334 9 56 47 334 181 266 269 238 208 157 191 208 142 245 158 224 195 206 266 124 136 157 162 171 192 209 175 195 169 222 275 264 242 228 218 224 228 229 219 211
348 349 338 324 346 346 62 353 334 195 275 164 200 165 183 171 184 340 8 201 131 208 161 181 156 174 188 196 258 195 199 192 160 187 233 207 292 204 182 217 228 231 226 226 212
345 346 346 346 309 319 327 335 324 233 331 103 160 27 154 206 118 140 75 215 178 152 218 137 172 186 213 229 234 39 169 176 177 218 269 184 255 124 166 201 210 223 232 223 217
342 340 343 339 297 288 333 326 205 227 249 170 174 180 173 178 150 133 165 79 86 113 42 97 129 186 226 104 247 140 141 131 164 238 257 170 254 142 100 347 320 322 279 231 215
338 332 318 287 253 312 341 255 183 178 111 168 175 187 198 177 158 190 180 166 186 190 195 163 159 134 199 154 149 203 192 210 221 211 256 137 223 313 6 26 350 345 350 250 211
335 327 302 239 257 323 321 202 200 208 217 86 184 175 200 172 186 176 184 191 188 206 187 203 194 188 116 262 224 203 236 219 260 227 120 176 236 121 51 49 64 46 48 54 184
336 326 289 244 237 200 221 132 202 213 144 177 163 192 183 190 225 190 214 220 199 195 213 206 204 135 64 225 256 173 218 42 165 77 273 236 233 169 136 80 80 61 54 53 62
334 317 284 249 166 172 98 206 259 224 174 194 226 221 203 191 198 202 188 186 191 203 264 174 163 200 129 183 74 265 106 189 178 205 247 226 263 170 145 91 77 50 32 28 36
316 293 77 200 162 197 204 217 230 241 225 225 224 210 235 187 220 202 191 153 206 163 200 173 204 141 200 206 203 158 186 103 160 271 270 288 248 91 128 88 60 23 21 23 24
317 246 346 183 193 194 203 180 274 231 185 240 280 245 218 200 206 214 208 267 169 177 191 155 174 195 186 105 316 267 239 217 213 199 231 294 263 164 110 82 7 358 10 22 31
295 297 353 201 210 209 182 177 277 235 202 245 233 232 204 206 216 219 194 109 180 194 179 174 193 157 184 183 186 222 192 99 77 128 221 238 242 157 148 224 357 339 25 49 46
294 280 270 253 318 263 206 200 197 218 236 296 297 227 188 202 206 205 189 155 178 213 85 172 184 213 236 72 117 178 199 186 180 201 231 236 277 236 201 332 13 26 45 49 56
219 261 328 243 231 237 216 199 199 184 208 200 259 244 215 206 201 205 193 160 169 167 172 204 205 169 170 144 211 224 200 181 200 226 233 260 264 286 328 345 0 7 58 80 75
209 274 348 309 276 200 228 227 208 209 176 180 233 343 255 232 213 204 190 205 184 176 192 181 199 189 175 196 244 260 242 222 227 243 248 266 273 326 86 6 19 19 80 90 91
227 255 289 282 246 227 223 220 250 224 208 232 189 296 306 269 296 335 168 136 173 178 185 181 165 183 215 188 274 273 243 234 225 228 240 253 299 96 319 50 35 58 84 99 105